7 * 24
多渠道服务支持
TIANHUI 4A(天绘四号A)是中国研制的遥感测绘卫星,于2021年12月29日在酒泉卫星发射中心搭乘长征二号丁运载火箭成功入轨。卫星主要承担科学试验研究、国土资源普查、地理信息测绘等核心任务,可获取高精度对地观测数据,服务国土规划、资源勘探等领域,目前在轨运行状态稳定,标志着任务取得圆满成功,进一步完善了中国天绘卫星体系。
中国
(CN)
| 数据来源 | 国际轨道数据 |
| 星历时间: | 2026-06-14T23:19:20+0800 7小时前 查看轨道信息 |
| 半长轴: | 6805.205km |
| 偏心率: | 0.0011047 |
| 轨道倾角: | 88.970° |
| 近地点辐角 | 81.468° |
| 升交点赤经 | 323.087° |
| 平近点角 | 278.783° |
| 近地点: | 419.55km |
| 远地点: | 434.586km |
| 周期: | 93.115分钟 |
| 每日圈数: | 15.464681 |